DAL3996 KFLL-KATL

Flight info

Callsign DAL3996
Flight time N/A
Altitude 35000
Route FRSBE2 STYMY Q77 SHRKS LAIRI LARZZ JJEDI4
Aircraft A35K/H-ICAOFAA/L

Departure

Time 2026-05-03 20:35
Airport Fort Lauderdale Hollywood International Airport (KFLL)

Arrival

Time N/A
Airport Hartsfield Jackson Atlanta International Airport (KATL)
Time Latitude Longitude Altitude Speed Heading
2026-05-03 20:15 26.07341 -80.14429 16 ft 0 kts 102°
2026-05-03 20:15 26.07342 -80.14438 16 ft 2 kts 102°
2026-05-03 20:15 26.07347 -80.14462 16 ft 2 kts 101°
2026-05-03 20:15 26.07350 -80.14482 16 ft 2 kts 100°
2026-05-03 20:16 26.07353 -80.14499 16 ft 1 kts 95°
2026-05-03 20:16 26.07353 -80.14508 16 ft 0 kts 69°
2026-05-03 20:16 26.07352 -80.14511 16 ft 0 kts 55°
2026-05-03 20:17 26.07352 -80.14510 16 ft 0 kts 52°
2026-05-03 20:17 26.07353 -80.14509 16 ft 0 kts 51°
2026-05-03 20:17 26.07354 -80.14509 16 ft 0 kts 51°
2026-05-03 20:18 26.07354 -80.14508 16 ft 0 kts 51°
2026-05-03 20:18 26.07376 -80.14496 16 ft 5 kts
2026-05-03 20:18 26.07418 -80.14493 16 ft 6 kts 359°
2026-05-03 20:19 26.07464 -80.14507 16 ft 7 kts 324°
2026-05-03 20:19 26.07483 -80.14549 16 ft 6 kts 270°
2026-05-03 20:19 26.07480 -80.14600 16 ft 7 kts 266°
2026-05-03 20:19 26.07482 -80.14660 16 ft 8 kts 277°
2026-05-03 20:20 26.07489 -80.14726 16 ft 9 kts 270°
2026-05-03 20:20 26.07490 -80.14803 16 ft 10 kts 273°
2026-05-03 20:20 26.07493 -80.14887 16 ft 11 kts 269°
2026-05-03 20:20 26.07492 -80.14915 16 ft 0 kts 268°
2026-05-03 20:21 26.07491 -80.14929 16 ft 4 kts 268°
2026-05-03 20:21 26.07490 -80.14983 16 ft 9 kts 268°
2026-05-03 20:21 26.07485 -80.15074 16 ft 14 kts 270°
2026-05-03 20:21 26.07488 -80.15194 16 ft 16 kts 272°
2026-05-03 20:22 26.07490 -80.15324 16 ft 16 kts 271°
2026-05-03 20:22 26.07488 -80.15454 16 ft 16 kts 267°
2026-05-03 20:22 26.07480 -80.15583 16 ft 17 kts 268°
2026-05-03 20:22 26.07482 -80.15717 16 ft 17 kts 272°
2026-05-03 20:23 26.07486 -80.15852 16 ft 16 kts 276°
2026-05-03 20:23 26.07493 -80.15975 16 ft 16 kts 272°
2026-05-03 20:23 26.07497 -80.16100 16 ft 16 kts 272°
2026-05-03 20:23 26.07501 -80.16222 16 ft 15 kts 270°
2026-05-03 20:24 26.07497 -80.16334 16 ft 14 kts 268°
2026-05-03 20:24 26.07495 -80.16442 16 ft 13 kts 269°
2026-05-03 20:24 26.07495 -80.16547 16 ft 13 kts 271°
2026-05-03 20:24 26.07506 -80.16631 16 ft 7 kts 308°
2026-05-03 20:25 26.07524 -80.16641 16 ft 0 kts 359°
2026-05-03 20:26 26.07525 -80.16641 16 ft 0 kts 359°
2026-05-03 20:26 26.07526 -80.16641 16 ft 0 kts 359°
2026-05-03 20:26 26.07543 -80.16643 16 ft 7 kts 356°
2026-05-03 20:27 26.07591 -80.16644 16 ft 0 kts
2026-05-03 20:33 26.07616 -80.16644 16 ft 9 kts
2026-05-03 20:33 26.07688 -80.16614 16 ft 6 kts 72°
2026-05-03 20:34 26.07694 -80.16584 16 ft 0 kts 85°
2026-05-03 20:34 26.07694 -80.16583 16 ft 0 kts 90°
2026-05-03 20:34 26.07694 -80.16578 16 ft 7 kts 90°
2026-05-03 20:35 26.07691 -80.16213 16 ft 86 kts 88°
2026-05-03 20:35 26.07688 -80.15276 17 ft 153 kts 89°
2026-05-03 20:35 26.07702 -80.13913 295 ft 185 kts 89°
2026-05-03 20:35 26.07655 -80.12740 1643 ft 140 kts 92°
2026-05-03 20:36 26.07551 -80.11750 2310 ft 137 kts 96°
2026-05-03 20:36 26.07375 -80.10480 2251 ft 193 kts 94°
2026-05-03 20:36 26.07352 -80.08852 2498 ft 231 kts 87°
2026-05-03 20:36 26.07403 -80.06905 2768 ft 271 kts 88°
2026-05-03 20:37 26.07452 -80.04663 3036 ft 310 kts 87°
2026-05-03 20:37 26.07594 -80.02141 3279 ft 345 kts 77°
2026-05-03 20:37 26.08674 -79.99644 3569 ft 374 kts 47°
2026-05-03 20:37 26.10490 -79.97636 4965 ft 371 kts 44°
2026-05-03 20:38 26.12284 -79.95649 6372 ft 366 kts 44°
2026-05-03 20:38 26.14047 -79.93702 7700 ft 362 kts 43°
2026-05-03 20:38 26.15805 -79.91752 8983 ft 357 kts 43°
2026-05-03 20:38 26.17589 -79.89902 10166 ft 349 kts 30°
2026-05-03 20:39 26.19718 -79.88702 11176 ft 343 kts 17°
2026-05-03 20:39 26.22004 -79.88281 12047 ft 333 kts 348°
2026-05-03 20:39 26.24184 -79.89086 12618 ft 333 kts 327°
2026-05-03 20:39 26.26292 -79.90297 12944 ft 353 kts 332°
2026-05-03 20:40 26.28539 -79.91600 12951 ft 373 kts 317°
2026-05-03 20:40 26.30207 -79.93865 12862 ft 390 kts 292°
2026-05-03 20:40 26.30803 -79.96829 13041 ft 401 kts 271°
2026-05-03 20:40 26.30832 -79.99905 14012 ft 395 kts 267°
2026-05-03 20:41 26.30693 -80.02941 14906 ft 390 kts 262°
2026-05-03 20:41 26.30064 -80.05814 15768 ft 385 kts 251°